Temperature
27 28 29 30 30 29 29 29 29 30 30 30 30 29 28 26 25 24 23 22 21 20 19 18 17 17 17 17 17 17 17 17 17 17 17 17 17 17 17 16 17 16 16 16
27 28 29 30 29 29 29 29 30 30 30 29 29 29 29 26 25 24 23 22 21 20 19 18 17 17 17 17 17 17 17 17 17 17 17 17 17 17 16 16 17 16 16 16
28 29 29 29 28 28 29 29 29 29 30 29 29 29 28 27 25 24 23 22 22 21 19 18 17 17 17 17 17 17 17 17 17 17 17 17 17 17 16 16 16 16 16 16
28 29 28 28 28 29 29 30 29 29 29 30 29 28 29 28 26 25 24 22 22 21 19 18 17 17 17 17 17 17 17 17 17 17 17 17 17 17 17 16 16 16 16 16
28 28 28 28 29 29 29 29 29 29 29 29 29 28 30 28 27 27 25 23 22 21 20 18 17 17 17 16 16 16 17 17 17 17 17 17 17 17 17 16 16 16 16 16
29 29 29 29 29 29 29 28 28 29 29 28 29 28 29 29 28 27 26 23 22 20 19 18 17 17 16 16 16 16 16 16 17 17 16 17 16 16 17 16 16 16 16 16
27 28 29 29 29 29 28 28 28 28 28 28 28 28 29 29 28 27 26 23 22 20 19 18 17 17 16 16 16 16 16 17 17 17 17 17 17 16 17 17 16 16 16 16
27 28 29 29 29 29 29 29 27 27 28 29 29 28 29 29 27 26 25 24 22 21 20 19 18 17 17 17 16 16 16 17 17 17 17 17 17 16 16 16 16 16 16 16
28 28 29 29 30 29 29 29 30 29 28 28 29 29 29 28 27 26 25 23 22 21 20 19 18 18 17 17 17 17 17 17 17 17 17 17 17 16 16 16 16 16 16 16
29 28 29 29 29 29 29 30 29 28 27 27 28 29 29 29 28 27 26 24 23 21 21 20 19 18 18 17 17 17 17 17 17 17 17 16 17 17 16 16 16 16 16 16
28 27 28 28 28 29 28 28 28 29 28 27 27 29 30 29 28 27 26 24 23 22 21 20 19 19 18 17 17 17 17 17 17 17 16 16 16 16 16 16 16 16 16 16
28 28 28 28 29 28 29 29 28 27 27 27 28 29 30 29 29 28 27 24 23 22 21 20 20 19 18 18 17 17 17 17 17 17 17 16 16 16 16 16 16 16 16 16
27 26 26 27 27 27 27 28 28 28 28 28 27 29 29 28 28 27 26 24 22 22 21 20 20 19 19 18 18 17 17 17 17 16 16 16 16 16 16 16 16 16 16 16
25 26 26 27 27 27 27 27 27 27 27 28 28 29 29 28 27 27 25 24 22 21 21 20 20 19 19 18 18 18 17 17 17 17 16 16 16 16 16 16 16 16 16 16
25 26 26 27 27 27 27 27 27 26 27 27 28 28 29 29 28 26 24 23 22 21 20 20 19 19 18 18 18 17 17 17 17 17 17 17 16 16 16 16 16 16 16 16
25 25 25 25 26 26 26 26 26 26 27 27 27 27 29 27 26 25 24 23 22 21 20 19 19 18 18 17 17 17 17 17 16 17 16 16 16 16 16 16 16 15 15 15
24 23 23 24 25 25 24 26 26 26 27 26 26 27 27 26 25 24 23 22 21 20 20 19 18 18 17 17 17 17 17 17 16 16 16 16 16 15 15 15 15 15 15 15
22 22 23 23 23 22 25 26 25 25 25 26 26 26 25 24 22 21 21 21 20 19 18 18 17 17 16 16 16 16 16 16 16 16 16 15 15 15 15 14 14 14 14 14
22 21 22 22 22 23 24 24 23 23 23 24 24 24 23 21 20 19 18 18 18 18 17 16 16 16 16 16 16 15 15 15 15 15 14 14 14 14 14 13 13 13 13 13
20 20 21 21 21 21 23 23 21 22 22 22 22 22 21 20 22 20 17 16 16 16 15 15 15 15 15 15 15 15 14 14 14 14 13 13 13 13 13 13 12 12 12 12
20 20 20 20 20 22 22 21 21 21 21 20 20 20 20 20 20 17 15 14 14 14 14 14 14 14 14 14 14 14 13 13 13 13 13 12 12 12 12 12 12 11 11 11
21 21 20 20 20 20 21 20 20 20 19 18 18 18 18 16 15 14 13 13 13 13 13 13 13 13 12 13 13 13 12 12 12 12 12 12 11 11 11 11 11 10 10 10
20 20 20 20 20 20 19 18 18 17 17 17 17 16 16 14 13 12 12 12 12 12 12 12 12 12 11 12 12 12 11 11 11 11 11 11 11 10 10 10 10 10 10 10
21 20 19 19 20 19 18 17 16 16 15 15 15 14 14 13 12 11 11 11 11 11 11 11 11 11 10 10 11 11 10 11 11 11 10 10 10 10 10 9 10 10 10 10
20 19 18 18 18 18 17 15 14 14 13 13 13 13 12 12 11 10 10 10 10 10 10 10 10 10 10 10 10 10 10 10 10 10 10 10 9 9 9 9 9 9 9 8
20 18 18 18 17 16 15 13 13 13 12 12 12 11 11 10 10 9 9 9 9 9 9 10 10 9 9 9 9 10 10 10 10 9 9 10 9 9 9 8 8 8 8 7
Wind_Speed
11 13 14 12 9 7 8 9 9 7 6 8 9 9 4 2 4 5 6 7 8 8 9 8 9 10 11 12 14 14 13 13 11 9 10 9 8 7 6 6 6 6 5 6
11 17 16 10 8 9 10 11 10 7 5 7 10 10 2 3 4 5 6 7 8 8 9 9 9 10 11 13 13 14 14 14 12 10 8 7 8 6 6 5 6 6 6 6
19 9 7 11 12 12 12 11 9 10 9 7 8 7 3 4 5 5 6 6 7 8 8 9 9 10 11 13 14 13 14 13 13 12 9 8 7 6 6 6 6 6 6 5
15 14 10 12 13 13 13 8 8 10 11 8 5 9 1 3 5 6 7 7 7 8 7 7 8 9 11 12 13 13 14 13 12 12 12 12 10 8 7 7 6 6 6 6
11 11 13 15 15 13 12 6 8 9 10 11 6 8 3 3 3 4 7 8 8 7 7 7 7 8 9 11 12 12 13 13 13 13 13 12 10 8 7 7 8 7 6 6
13 8 8 10 9 9 7 7 8 9 10 11 5 7 6 2 2 2 7 8 8 8 8 8 7 8 9 11 11 12 13 13 13 13 13 13 11 10 9 9 9 8 7 6
15 16 14 12 11 10 10 11 10 10 9 7 0 6 5 2 0 2 6 9 9 9 9 9 9 10 11 12 12 12 13 14 14 14 13 13 12 11 11 10 9 8 7 7
13 12 14 14 16 12 13 14 12 10 9 7 3 5 3 2 3 4 6 9 10 10 10 10 11 11 11 12 13 13 14 14 14 14 13 12 11 10 9 10 8 8 6 6
8 7 6 8 10 12 11 13 12 11 12 11 7 5 3 4 6 7 8 10 11 11 11 11 12 12 12 12 12 13 14 14 14 14 13 12 12 10 9 9 9 8 6 6
9 7 8 7 8 10 11 9 7 10 11 11 9 7 3 3 5 9 10 11 11 12 12 12 12 12 12 12 12 12 13 14 13 13 12 11 12 11 9 9 8 7 6 6
11 10 9 8 10 11 10 10 10 10 10 11 11 6 2 1 4 9 11 12 13 13 13 13 12 12 12 13 13 13 13 13 13 12 12 11 11 11 10 9 8 7 7 7
10 8 10 9 4 4 10 12 12 11 12 11 13 9 2 1 4 7 10 12 13 13 14 14 13 13 13 13 13 14 13 13 13 13 12 11 11 10 10 9 8 7 7 6
6 6 9 10 9 8 9 10 12 12 11 13 14 9 4 4 5 7 10 13 14 14 14 14 14 13 13 13 13 14 14 14 13 13 12 12 11 11 10 9 7 6 5 5
3 7 11 13 6 4 8 10 10 13 14 15 16 14 7 5 5 7 10 13 14 15 15 15 14 13 13 13 13 13 13 13 13 12 12 11 10 9 8 7 7 6 5 4
4 9 10 11 9 9 12 13 13 15 16 18 17 16 12 7 5 6 10 13 15 15 15 15 14 13 12 12 12 12 12 12 12 11 11 10 8 8 8 7 7 6 5 5
3 7 9 12 12 13 15 16 17 18 19 19 20 20 13 6 4 6 10 14 15 15 15 15 14 13 13 12 12 11 11 10 10 11 10 9 8 8 8 7 7 7 6 6
5 6 10 13 12 13 17 16 18 19 19 19 20 18 12 9 6 6 9 13 14 15 15 14 13 12 11 11 11 11 10 10 10 10 10 10 9 9 8 8 9 8 8 7
5 7 7 11 10 15 9 4 8 13 15 16 17 15 11 8 3 3 5 9 12 13 13 12 11 11 10 11 11 11 11 11 11 11 11 10 10 11 10 10 10 9 8 9
4 7 8 9 13 13 11 6 7 10 14 11 11 11 8 3 3 3 3 6 8 10 10 10 11 11 11 12 13 13 13 12 12 12 11 11 11 12 11 11 10 10 10 10
4 6 8 9 11 11 5 2 4 8 11 3 6 7 5 6 8 4 6 8 9 10 10 11 12 13 13 13 14 15 14 14 13 12 12 12 12 12 12 11 11 10 10 10
7 7 10 12 12 9 3 3 5 9 4 7 8 7 6 7 3 7 10 11 11 12 13 13 14 13 13 14 15 16 15 14 14 13 13 13 13 12 12 11 10 10 10 10
7 7 8 7 9 7 3 4 6 8 11 11 10 8 3 2 8 11 12 13 14 14 15 15 15 14 13 14 16 17 16 14 14 14 14 14 13 12 12 11 10 9 9 9
6 6 5 6 6 5 5 8 10 12 14 12 9 6 3 8 11 13 14 15 15 16 16 16 17 17 15 14 15 17 15 14 15 15 15 14 13 11 10 10 9 8 6 5
5 5 7 8 8 9 9 9 9 9 9 8 5 3 8 12 14 15 15 15 16 16 16 17 18 18 16 15 15 14 14 14 15 15 14 12 12 11 9 7 6 5 4 4
6 4 7 10 9 8 6 7 7 5 4 1 3 7 12 15 17 16 16 16 15 15 15 16 17 17 16 14 14 13 12 13 14 13 12 11 11 10 9 9 9 8 10 8
5 5 7 7 6 6 7 7 5 2 3 7 11 13 14 17 19 18 16 15 14 15 15 16 17 17 15 14 14 12 11 11 11 11 10 9 8 8 8 9 10 15 12 14
Wind_Direction
205 227 230 232 243 275 284 286 293 314 336 316 313 317 316 206 203 191 188 185 187 188 185 183 181 180 182 183 181 178 177 172 169 168 170 168 165 166 163 166 162 170 177 172
211 231 237 244 247 254 261 271 283 302 332 311 310 305 295 202 212 208 199 195 191 186 183 182 179 180 183 183 182 180 179 176 175 171 169 168 161 165 160 159 154 171 176 179
224 234 228 230 231 242 251 263 286 307 311 263 298 288 186 187 201 201 200 194 190 189 188 185 186 189 187 186 186 183 179 176 177 167 160 156 155 161 162 165 167 178 181 183
235 238 227 231 235 240 249 258 281 292 294 307 321 315 282 185 209 204 198 191 191 187 186 185 189 192 192 189 184 180 176 174 173 169 174 174 178 176 174 174 165 171 182 184
221 225 227 233 238 240 253 274 276 282 284 287 275 297 334 172 245 204 190 188 189 182 180 180 183 184 183 179 176 173 172 171 172 178 179 180 183 177 168 169 164 178 178 188
242 224 236 240 238 239 236 243 251 256 264 270 296 301 314 3 314 185 173 179 182 177 171 167 169 167 166 170 170 169 168 168 173 179 182 185 182 176 169 175 174 185 180 187
232 234 232 236 237 219 222 239 247 246 243 264 323 284 307 6 182 183 170 172 176 174 169 165 167 167 166 167 168 171 171 171 177 182 185 186 184 181 181 184 184 190 183 184
220 227 219 221 228 230 223 236 249 266 275 286 240 274 325 102 148 157 163 165 171 174 171 168 168 167 169 169 170 173 175 175 179 183 185 187 187 190 190 192 189 190 192 185
221 217 180 206 219 228 224 234 252 264 270 277 277 275 261 172 179 174 167 167 174 175 172 170 168 169 170 171 172 175 178 179 180 184 183 186 191 196 192 186 195 192 193 187
238 239 202 194 208 220 245 243 234 249 263 270 269 269 283 201 191 179 178 177 174 173 173 171 169 169 169 171 172 173 174 177 178 181 185 188 190 191 190 195 193 193 193 196
232 238 218 201 219 218 207 221 237 251 262 272 278 285 62 284 209 187 181 178 175 175 173 171 170 170 170 170 171 172 174 176 179 182 187 189 188 187 188 195 197 197 203 199
215 235 242 226 218 269 240 237 233 246 252 254 271 279 105 204 200 189 177 170 171 173 171 171 170 169 171 173 173 175 177 179 181 183 185 189 189 187 189 195 201 202 208 212
185 221 233 222 209 209 228 233 241 248 259 258 261 269 142 162 186 184 177 169 168 171 172 172 172 174 176 176 175 175 179 180 180 181 183 185 188 187 192 195 197 198 202 210
228 237 251 261 275 237 232 232 236 243 249 256 257 270 255 225 206 187 180 175 172 173 174 175 175 177 177 176 176 177 178 179 180 180 182 182 185 184 186 184 181 183 188 190
242 246 252 268 278 269 263 257 249 248 257 267 273 274 277 278 244 205 189 181 177 174 176 178 176 175 177 176 175 176 177 176 177 178 178 173 171 170 168 165 165 166 167 167
237 265 266 263 264 265 265 261 258 257 259 262 268 272 281 289 261 214 198 188 183 179 178 175 172 171 173 173 173 170 170 167 167 169 165 155 153 155 153 152 148 142 136 129
236 252 264 266 270 273 261 257 259 260 260 261 264 271 278 268 253 230 206 195 188 180 175 172 169 166 164 163 162 159 154 149 151 147 140 138 138 135 132 132 129 125 120 115
249 255 259 268 269 257 265 290 280 275 274 272 271 273 276 279 269 242 216 195 181 175 168 162 157 152 149 144 140 135 133 132 129 126 125 126 127 121 117 115 113 112 109 106
234 237 252 256 256 262 265 267 284 280 277 284 284 282 271 212 188 208 183 171 166 160 152 145 141 136 132 132 131 127 123 118 114 113 115 118 117 114 113 111 109 108 107 104
194 223 244 247 258 262 269 34 333 289 268 325 321 300 263 219 231 196 130 125 123 123 124 124 122 120 119 120 121 118 113 110 108 107 105 104 105 108 109 109 109 107 106 105
212 223 240 251 254 260 301 337 291 257 297 3 335 317 282 256 273 116 118 115 116 114 114 115 113 110 112 116 115 110 107 105 106 106 105 103 104 106 107 107 107 111 109 105
249 245 239 245 248 255 49 306 280 303 321 315 311 305 295 98 113 121 120 119 116 113 113 112 107 103 105 109 110 107 105 107 109 107 105 105 106 107 107 107 107 109 115 118
242 260 268 255 270 320 315 296 296 298 294 294 292 285 175 137 130 125 120 116 113 111 109 108 105 100 97 99 104 105 107 111 110 107 105 104 103 102 107 112 117 121 123 120
236 251 261 267 269 290 302 306 306 302 296 295 279 200 148 137 129 121 116 113 110 109 108 107 103 100 97 96 96 99 105 107 107 106 106 106 106 103 95 93 95 93 87 89
278 258 262 268 284 296 307 321 317 314 314 337 109 125 129 126 121 117 113 110 108 107 105 103 102 101 100 98 97 100 104 106 107 108 109 109 104 99 91 75 53 61 54 44
260 264 275 290 318 309 312 323 329 8 89 113 116 112 112 115 117 114 110 109 110 108 107 107 107 106 105 101 98 97 100 104 109 111 110 110 112 111 112 106 90 60 69 70
Height
1500 1498 1493 1488 1488 1489 1490 1490 1487 1482 1478 1479 1476 1475 1476 1482 1485 1487 1489 1491 1493 1495 1497 1498 1500 1501 1504 1507 1511 1516 1520 1525 1529 1533 1537 1541 1544 1547 1550 1552 1553 1555 1557 1558
1497 1494 1486 1486 1489 1491 1490 1489 1484 1478 1477 1479 1476 1474 1473 1479 1482 1485 1487 1489 1491 1493 1496 1497 1498 1500 1502 1505 1508 1512 1517 1522 1527 1531 1536 1539 1543 1546 1548 1551 1552 1554 1556 1557
1490 1483 1484 1487 1489 1490 1487 1486 1483 1483 1477 1474 1476 1471 1472 1476 1480 1483 1485 1487 1489 1491 1493 1495 1497 1498 1500 1502 1505 1509 1514 1520 1524 1529 1533 1537 1541 1544 1547 1549 1551 1553 1554 1556
1484 1481 1485 1487 1486 1485 1486 1478 1481 1481 1481 1475 1479 1482 1469 1470 1474 1478 1482 1485 1487 1489 1491 1493 1494 1495 1497 1499 1502 1506 1511 1516 1521 1526 1531 1535 1539 1542 1545 1548 1550 1551 1553 1555
1481 1480 1482 1485 1481 1480 1479 1478 1480 1479 1479 1479 1473 1479 1468 1467 1470 1472 1477 1481 1484 1487 1489 1491 1492 1493 1494 1497 1500 1504 1509 1514 1519 1524 1528 1533 1537 1541 1544 1546 1548 1550 1552 1554
1475 1476 1477 1476 1475 1477 1477 1481 1479 1477 1475 1485 1475 1481 1473 1462 1466 1468 1474 1479 1483 1486 1488 1490 1491 1492 1494 1496 1499 1503 1507 1512 1517 1522 1527 1531 1535 1539 1542 1545 1547 1549 1551 1553
1478 1473 1473 1474 1475 1476 1478 1484 1488 1488 1485 1481 1471 1477 1470 1461 1464 1467 1471 1477 1481 1484 1486 1489 1490 1492 1494 1496 1499 1503 1507 1511 1515 1520 1525 1529 1534 1537 1540 1543 1546 1548 1551 1552
1477 1475 1466 1467 1471 1471 1472 1475 1488 1495 1489 1475 1469 1474 1462 1460 1465 1468 1471 1475 1479 1482 1485 1487 1490 1492 1494 1497 1499 1502 1506 1510 1514 1518 1523 1528 1532 1536 1540 1542 1545 1547 1549 1551
1467 1469 1461 1463 1464 1466 1470 1470 1463 1474 1476 1481 1470 1463 1457 1460 1463 1467 1470 1474 1477 1480 1483 1486 1489 1491 1494 1496 1499 1501 1504 1508 1513 1517 1521 1525 1530 1534 1537 1540 1543 1545 1547 1549
1459 1469 1460 1461 1463 1464 1462 1461 1468 1474 1487 1488 1474 1466 1461 1457 1459 1463 1467 1471 1475 1479 1482 1485 1488 1491 1493 1496 1499 1500 1502 1506 1511 1515 1520 1524 1528 1531 1535 1538 1541 1543 1545 1547
1458 1467 1461 1461 1463 1461 1466 1467 1466 1465 1467 1480 1481 1467 1448 1452 1455 1459 1464 1469 1473 1477 1480 1484 1487 1490 1493 1496 1499 1501 1503 1506 1510 1514 1518 1522 1525 1529 1532 1536 1539 1541 1543 1545
1459 1460 1461 1457 1455 1458 1457 1458 1462 1472 1472 1469 1472 1464 1445 1449 1453 1457 1461 1467 1471 1475 1479 1482 1486 1489 1493 1495 1498 1501 1503 1506 1509 1513 1516 1520 1523 1526 1530 1533 1536 1539 1541 1543
1460 1463 1470 1466 1464 1461 1459 1457 1457 1459 1463 1465 1468 1460 1447 1450 1453 1457 1460 1465 1470 1474 1477 1481 1485 1488 1491 1494 1497 1500 1503 1506 1509 1512 1515 1518 1521 1524 1527 1531 1534 1536 1538 1540
1461 1460 1463 1464 1457 1454 1459 1458 1457 1460 1461 1460 1457 1452 1446 1447 1452 1456 1460 1464 1468 1472 1476 1479 1483 1486 1489 1492 1495 1498 1502 1504 1507 1510 1513 1516 1519 1522 1525 1528 1531 1533 1535 1537
1461 1460 1457 1455 1452 1454 1456 1456 1456 1458 1456 1457 1450 1447 1443 1444 1450 1455 1459 1463 1466 1470 1473 1477 1480 1484 1487 1490 1493 1496 1500 1502 1505 1508 1511 1514 1517 1520 1523 1525 1528 1530 1533 1535
1461 1462 1461 1461 1455 1455 1457 1454 1453 1453 1452 1451 1450 1447 1442 1447 1451 1454 1458 1461 1464 1467 1471 1474 1478 1481 1485 1488 1491 1494 1497 1500 1502 1505 1509 1512 1515 1518 1520 1522 1525 1528 1530 1532
1459 1464 1467 1463 1455 1458 1460 1451 1449 1448 1446 1447 1448 1444 1443 1447 1450 1454 1456 1458 1461 1465 1469 1472 1476 1479 1483 1486 1489 1492 1495 1497 1500 1503 1506 1509 1512 1515 1518 1521 1523 1526 1528 1530
1464 1466 1465 1463 1465 1473 1450 1444 1447 1448 1446 1443 1442 1443 1446 1448 1453 1455 1457 1458 1461 1464 1467 1471 1474 1478 1482 1485 1488 1491 1494 1497 1499 1502 1505 1508 1511 1514 1517 1520 1522 1525 1526 1528
1465 1467 1465 1463 1463 1457 1448 1447 1450 1451 1448 1444 1444 1444 1447 1450 1453 1455 1457 1458 1461 1464 1466 1470 1473 1477 1480 1484 1487 1490 1494 1497 1500 1502 1505 1508 1511 1514 1517 1519 1522 1525 1526 1528
1466 1466 1465 1464 1469 1465 1450 1449 1453 1453 1450 1447 1447 1447 1448 1449 1449 1451 1456 1458 1461 1463 1466 1470 1473 1476 1480 1484 1487 1490 1494 1497 1501 1504 1507 1509 1512 1515 1518 1520 1523 1525 1527 1528
1464 1465 1465 1463 1464 1453 1447 1451 1453 1457 1450 1451 1449 1449 1449 1449 1449 1454 1456 1458 1461 1464 1467 1471 1474 1477 1481 1485 1488 1491 1495 1499 1502 1505 1508 1511 1514 1518 1520 1522 1524 1526 1528 1529
1458 1459 1461 1461 1463 1457 1451 1452 1453 1451 1450 1450 1449 1449 1449 1451 1452 1455 1457 1460 1463 1466 1469 1473 1476 1479 1484 1488 1490 1492 1496 1501 1505 1508 1511 1514 1518 1521 1523 1524 1526 1528 1529 1531
1456 1455 1454 1455 1454 1451 1453 1453 1453 1452 1450 1448 1448 1448 1449 1451 1454 1456 1459 1462 1466 1469 1472 1476 1478 1482 1487 1491 1494 1496 1500 1504 1508 1511 1514 1517 1520 1523 1525 1527 1529 1530 1532 1533
1452 1455 1455 1454 1449 1450 1451 1451 1450 1449 1447 1446 1445 1446 1447 1450 1454 1458 1461 1465 1469 1473 1476 1479 1482 1486 1492 1496 1499 1502 1505 1508 1511 1515 1517 1520 1523 1526 1527 1530 1532 1533 1534 1534
1451 1453 1453 1452 1450 1450 1449 1450 1448 1446 1445 1444 1444 1446 1448 1451 1456 1460 1464 1468 1472 1477 1481 1484 1487 1492 1496 1500 1503 1507 1510 1513 1515 1518 1521 1523 1526 1528 1529 1530 1531 1532 1532 1532
1451 1452 1453 1451 1451 1451 1451 1449 1447 1445 1444 1444 1445 1448 1451 1454 1458 1463 1468 1472 1477 1481 1485 1490 1494 1497 1502 1505 1508 1512 1515 1517 1519 1521 1524 1526 1528 1529 1531 1531 1531 1531 1531 1531